EDRS-C

Last updated on Thu Jul 03 2025 00:02:48 GMT+0000 (Coordinated Universal Time)

1 44475U 19049A 25183.59492343 -.00000254 00000+0 00000+0 0 9995 2 44475 0.0394 111.7734 0000697 23.9602 141.8654 1.00270886 21701
UTC large
Height (km)
Speed (km/s)
/
Latitude / Longitude
Inclination (degrees)
Orbital Period (minutes)
Azimuth
Elevation
Range (km)
Doppler Factor

Next 0 passes for location: London (51.5072 / 0.1276)

Sorry there are no passes over London.